Location: Kott?ru
(16.6209°N, 80.6208°E)
Time: 13:16:35
(UTC+00:00)

CSL-04 Rocket - Pass Details

Date: 18 September 2020
Orbit: 806 x 860 km, 98.9° (Epoch: 29 October)

Event Time Altitude Azimuth Distance (km) Brightness Sun altitude
Rises 13:13:21 0° 144° (SE) 3,330 6.4 -9.6°
Reaches altitude 10° 13:15:56 10° 133° (SE) 2,406 5.6 -10.2°
Maximum altitude 13:20:30 30° 73° (ENE) 1,442 4.4 -11.3°
Drops below altitude 10° 13:25:08 10° 14° (NNE) 2,439 6.0 -12.4°
Sets 13:27:46 0° 4° (N) 3,383 6.9 -13.0°
